Regional Weather Roundup
Issued by NWS

Home | Current Version | Previous Version | Text Only | Print | Product List | Glossary Off
Versions: 1 2 3 4 5 6 7 8 9 10 11 12 13 14 15 16 17 18 19 20 21 22 23 24 25 26 27 28 29 30 31 32 33 34 35 36 37 38 39 40 41 42 43 44 45 46 47 48 49 50

000
ASUS43 KDMX 232001
RWRIA

WEATHER ROUNDUP FOR IOWA
NATIONAL WEATHER SERVICE DES MOINES IA
200 PM CST FRI FEB 23 2018

NOTE: "FAIR" INDICATES FEW OR NO CLOUDS BELOW 12,000 FEET WITH NO
SIGNIFICANT WEATHER AND/OR OBSTRUCTIONS TO VISIBILITY.

* - THESE STATIONS ARE NOT NWS STATIONS...THUS NOT UNDER NWS
QUALITY CONTROL.  THEY ALSO DO NOT REPORT WEATHER SUCH
AS PRECIPITATION OR FOG.

IAZ001>003-012>014-020>022-031>034-043>046-232100-
   NORTHWEST IOWA

CITY           SKY/WX    TMP DP  RH WIND       PRES   REMARKS
CARROLL *      PTSUNNY   27  23  86 NW13      30.28F WCI  16
CHEROKEE *     CLOUDY    21  19  90 W8        30.31S WCI  12
DENISON *      PTSUNNY   25  21  86 NW6       30.31F WCI  18
LE MARS *      CLOUDY    21  19  93 SW6       30.31F WCI  14
ORANGE CITY *  CLOUDY    23  21  93 W6        30.28F WCI  16
SHELDON *      CLOUDY    23  21  93 W6        30.26S WCI  16
SIOUX CITY     CLOUDY    22  18  85 NW7       30.33S WCI  13
SPENCER        CLOUDY    23  18  81 W12       30.28S WCI  12
STORM LAKE *   PTSUNNY   21  19  93 W13       30.27F WCI   9
$$

IAZ055>058-069>071-079>083-090>094-232100-
   SOUTHWEST IOWA

CITY           SKY/WX    TMP DP  RH WIND       PRES   REMARKS
ATLANTIC *     CLOUDY    28  27  93 NW8       30.29S WCI  20
AUDUBON *      PTSUNNY   27  23  86 NW6       30.28F WCI  20
CLARINDA *     PTSUNNY   36  28  75 N8        30.32S WCI  29
COUNCIL BLFS * PTSUNNY   28  27  93 NW8       30.28F WCI  20
CRESTON *      CLOUDY    34  28  80 W10       30.29R WCI  26
HARLAN  *      PTSUNNY   27  25  93 NW9       30.32F WCI  17
LAMONI         CLOUDY    36  28  73 NW8       30.27R WCI  30
RED OAK *      PTSUNNY   34  27  75 NW7G13    30.30S WCI  28
SHENANDOAH *   MOSUNNY   34  28  80 W3        30.32R
$$

IAZ047>049-059>061-072>074-084-232100-
   CENTRAL IOWA

CITY           SKY/WX    TMP DP  RH WIND       PRES   REMARKS
AMES           CLOUDY    26  22  84 NW14      30.29S WCI  14
ANKENY *       PTSUNNY   34  27  75 NW10G18   30.29S WCI  26
BOONE *        CLOUDY    25  23  93 MISG      30.27S FOG
CHARITON *     PTSUNNY   37  30  75 W8        30.26S WCI  31
DES MOINES     PTSUNNY   35  26  69 NW13      30.27F WCI  26
GRINNELL*      MOSUNNY   33  28  81 NW17      30.26F WCI  22
KNOXVILLE *    MOSUNNY   37  27  65 NW8       30.25R WCI  31
MARSHALLTOWN   CLOUDY    29  25  85 NW15      30.27S WCI  18
NEWTON *       PTSUNNY   34  28  80 NW12G20   30.27R WCI  25
PELLA *        SUNNY     38  28  67 NW9       30.28R WCI  31
PERRY *        CLOUDY    28  26  92 NW9       30.29S WCI  19
$$

IAZ004>006-015-016-023>025-035-036-232100-
   NORTH CENTRAL IOWA

CITY           SKY/WX    TMP DP  RH WIND       PRES   REMARKS
CLARION *      PTSUNNY   25  25 100 W12       30.26F WCI  14
ESTHERVILLE    MOSUNNY   25  20  81 W10       30.25R WCI  15
FORT DODGE *   CLOUDY    27  21  78 W10       30.28F WCI  17
MASON CITY     MOSUNNY   26  21  81 W14       30.26S WCI  14
FOREST CITY *  CLOUDY    28  23  80 W7        30.25S WCI  21
WEBSTER CITY * MOSUNNY   25  21  86 W13       30.26S WCI  13
IOWA FALLS *   CLOUDY    27  23  87 W13       30.27F WCI  16
$$

IAZ007>011-017>019-026>030-037>042-050>054-066-232100-
   NORTHEAST IOWA

CITY           SKY/WX    TMP DP  RH WIND       PRES   REMARKS
CEDAR RAPIDS   PTSUNNY   37  28  70 NW14      30.23S WCI  28
CHARLES CITY * FAIR      28  28 100 W17       30.24F WCI  16
CLINTON *      CLOUDY    38  32  79 W18       30.22S WCI  28
DECORAH *      PTSUNNY   30  25  80 W12       30.21R WCI  21
DUBUQUE        CLOUDY    32  25  75 W16       30.21R WCI  21
MONTICELLO *   CLOUDY    34  28  80 W14       30.23F WCI  24
OELWEIN *      PTSUNNY   30  30 100 W15       30.24S WCI  19
WATERLOO       PTSUNNY   31  24  75 W8        30.25S WCI  23
$$

IAZ064-065-067-068-078-232100-
   EAST CENTRAL IOWA

CITY           SKY/WX    TMP DP  RH WIND       PRES   REMARKS
DAVENPORT      CLOUDY    39  31  72 W16       30.24S WCI  30
IOWA CITY      FAIR      38  28  67 W15       30.26F WCI  29
MT. PLEASANT * CLOUDY    37  32  81 W8        30.25S WCI  31
MUSCATINE *    PTSUNNY   39  30  70 NW14G20   30.26R WCI  31
QUAD CITIES    CLOUDY    41  33  73 W13       30.23R
$$

IAZ062-063-075>077-085>089-095>099-232100-
   SOUTHEAST IOWA

CITY           SKY/WX    TMP DP  RH WIND       PRES   REMARKS
BURLINGTON     CLOUDY    38  32  79 SW7       30.25S WCI  33
FAIRFIELD *    MOSUNNY   39  28  65 W14       30.25R WCI  31
FORT MADISON * CLOUDY    37  34  87 W5        30.26S WCI  34
KEOKUK *       CLOUDY    37  34  87 W7        30.26S WCI  32
OSKALOOSA *    FAIR      37  29  73 NW12      30.26S WCI  29
OTTUMWA        CLOUDY    39  28  64 W12       30.25F WCI  32
WASHINGTON *   CLOUDY    37  34  87 NW14      30.26S WCI  29
$$

ABBREVIATIONS USED IN REMARKS
   TC - TEMPERATURES IN CELSIUS
  WCI - WIND CHILL INDEX
   HX - HEAT INDEX
  VSB - VISIBILITY
$$





USA.gov is the U.S. government's official web portal to all federal, state and local government web resources and services.